[[{"header":{"parameterUnit":"m.s-1","parameterCategory":2,"la1":30.2991,"la2":30.254,"lo1":-89.0895,"lo2":-89.0444,"dy":0.0017,"dx":0.0017,"nx":28,"ny":28,"refTime":"2025-09-11T09:00:00:Z","depth":"0","parameterNumber":2,"parameterNumberName":"U-component_of_CURRENTS"},"data":[0,0,0,0,0,0,0,0,0,0,0,0,0,0,0,0,0,0,0,0,0,0,0,0,0,0,0,0,0,0,0,0,0,0,0,0,0,0,0,0,0,0,0,0,0,0,0,0,0,0,0,0,0,0,0,0,0,0,-0.1773,-0.1774,0,-0.1865,-0.1866,-0.1867,-0.1854,-0.1852,-0.1851,-0.185,-0.1769,-0.1768,-0.1767,0,0,0,0,0,0,0,0,0,0,0,0,0,-0.1651,-0.1653,-0.1773,-0.1774,-0.1776,-0.1865,-0.1866,-0.1867,-0.1854,-0.1852,-0.1851,-0.1849,-0.1769,-0.1768,-0.1767,0,0,0,0,0,0,0,0,0,0,0,0,0,-0.1718,-0.1654,-0.1773,-0.1782,-0.1783,-0.1865,-0.1866,-0.1868,-0.1854,-0.1852,-0.185,-0.1848,-0.177,-0.1769,-0.1767,-0.1799,0,0,-0.1763,-0.1763,0,0,0,0,0,0,0,0,-0.1714,-0.1722,-0.1779,-0.1781,-0.1783,-0.1848,-0.1794,-0.1837,-0.1855,-0.1825,-0.185,-0.1847,-0.1782,-0.178,-0.1801,-0.1796,-0.1792,-0.1763,-0.1762,-0.1762,-0.1761,0,0,0,0,0,0,0,-0.1709,-0.1718,-0.1807,-0.1781,-0.1783,-0.1804,-0.181,-0.1803,-0.1809,-0.1828,-0.1827,-0.1842,-0.1782,-0.1803,-0.1799,-0.1791,-0.1763,-0.1762,-0.1761,-0.176,-0.1819,-0.1821,0,0,0,0,0,0,-0.1701,-0.1714,-0.1804,-0.181,-0.1745,-0.1807,-0.1814,-0.1827,-0.1813,-0.1811,-0.1843,-0.1841,-0.1806,-0.18,-0.1795,-0.1858,-0.1762,-0.176,-0.176,-0.1817,-0.1819,-0.1822,0,0,0,0,0,0,-0.1698,-0.1709,-0.1801,-0.1766,-0.1779,-0.1811,-0.1826,-0.183,-0.1845,-0.1827,-0.1821,-0.1853,-0.1804,-0.1797,-0.1809,-0.1852,-0.176,-0.1759,-0.1814,-0.1817,-0.1821,-0.1964,0,0,0,0,0,0,-0.1695,-0.1707,-0.1707,-0.1765,-0.1781,-0.1855,-0.1829,-0.1834,-0.1859,-0.1856,-0.1834,-0.1825,-0.1802,-0.1812,-0.1808,-0.1849,-0.1757,-0.1811,-0.1815,-0.182,-0.1956,-0.1972,-0.1986,0,0,0,0,0,-0.169,-0.1703,-0.1706,-0.1717,-0.1781,-0.1856,-0.1867,-0.1881,-0.1861,-0.1883,-0.1875,-0.1825,-0.1836,-0.1813,-0.1808,-0.1849,-0.1809,-0.1814,-0.1819,-0.195,-0.1969,-0.1985,0,0,0,0,0,0,-0.1655,-0.1705,-0.1709,-0.1737,-0.1794,-0.1855,-0.1869,-0.1886,-0.1902,-0.1885,-0.1859,-0.1852,-0.1878,-0.1846,-0.1821,-0.188,-0.1813,-0.1818,-0.1914,-0.1932,-0.1946,-0.1943,-0.1756,0,0,0,0,0,-0.1648,-0.1659,-0.1729,-0.1748,-0.1775,-0.1822,-0.1849,-0.1869,-0.1897,-0.1902,-0.1898,-0.1888,-0.1901,-0.19,-0.1897,-0.1931,-0.1873,-0.1953,-0.1967,-0.198,-0.1975,-0.1959,-0.1971,-0.1839,-0.1839,-0.1839,0,0,-0.1637,-0.1666,-0.1671,-0.174,-0.1774,-0.1846,-0.1832,-0.1881,-0.1945,-0.1888,-0.1948,-0.1935,-0.192,-0.1966,-0.1974,-0.1941,-0.1985,-0.1987,-0.1998,-0.1985,-0.1966,-0.1978,-0.1989,-0.1843,-0.1842,-0.1842,0,0,-0.1635,-0.1651,-0.1668,-0.1729,-0.1795,-0.1846,-0.1863,-0.1936,-0.1966,-0.2033,-0.2011,-0.2035,-0.2046,-0.2066,-0.2072,-0.2164,-0.2061,-0.2148,-0.2222,-0.2209,-0.2219,-0.2227,-0.2156,-0.2157,-0.2158,-0.2158,-0.2158,0,-0.1618,-0.1657,-0.1689,-0.1746,-0.1804,-0.1852,-0.1921,-0.1981,-0.2051,-0.2085,-0.206,-0.2116,-0.2106,-0.2175,-0.221,-0.22,-0.2138,-0.216,-0.2227,-0.2234,-0.224,-0.2165,-0.2164,-0.2165,-0.2165,-0.2164,-0.2163,0,-0.1649,-0.169,-0.1713,-0.1801,-0.1876,-0.1937,-0.2042,-0.2107,-0.2144,-0.2195,-0.2262,-0.2268,-0.2292,-0.2308,-0.2287,-0.2339,-0.2261,-0.2246,-0.2181,-0.2262,-0.2178,-0.2174,-0.2176,-0.2174,-0.2171,-0.2169,0,0,-0.159,-0.1705,-0.1714,-0.1767,-0.191,-0.1975,-0.2104,-0.2225,-0.2275,-0.2353,-0.2402,-0.248,-0.2456,-0.2459,-0.2441,-0.2442,-0.2441,-0.2359,-0.2354,-0.2284,-0.2349,-0.2196,-0.2176,-0.2423,-0.2424,-0.2424,-0.2267,0,-0.1602,-0.1685,-0.1769,-0.1889,-0.1952,-0.2074,-0.2185,-0.2304,-0.2373,-0.2428,-0.2476,-0.25,-0.2524,-0.2503,-0.2529,-0.2447,-0.2439,-0.2481,-0.2283,-0.2277,-0.2129,-0.2171,-0.2052,-0.1894,-0.2263,-0.2262,-0.2262,0,-0.1613,-0.167,-0.1763,-0.1921,-0.1962,-0.2052,-0.2217,-0.2321,-0.2438,-0.2477,-0.2543,-0.2542,-0.2585,-0.2555,-0.2526,-0.2537,-0.2457,-0.2399,-0.2392,-0.2192,-0.2118,-0.1876,-0.1872,-0.1872,-0.2255,-0.2256,-0.2256,0,-0.1532,-0.1679,-0.174,-0.1799,-0.1983,-0.2057,-0.2161,-0.2314,-0.237,-0.2473,-0.2458,-0.2558,-0.249,-0.2512,-0.2427,-0.2461,-0.2316,-0.2352,-0.2147,-0.2133,-0.1964,-0.1934,-0.1932,-0.2313,-0.2313,-0.2313,-0.2314,0,-0.1515,-0.1573,-0.1695,-0.1731,-0.182,-0.1986,-0.2074,-0.2194,-0.229,-0.2302,-0.2436,-0.2387,-0.2457,-0.2392,-0.2397,-0.2234,-0.2304,-0.2146,-0.2091,-0.2007,-0.1984,-0.1919,-0.1956,-0.2307,-0.2309,-0.231,-0.2311,0,-0.1425,-0.1501,-0.1574,-0.1726,-0.1774,-0.1832,-0.1984,-0.2034,-0.2142,-0.2138,-0.2149,-0.2192,-0.2111,-0.2157,-0.209,-0.2092,-0.1973,-0.1945,-0.1811,-0.1744,-0.1592,-0.164,-0.1528,-0.1489,-0.173,-0.1726,-0.1722,0,-0.1393,-0.1406,-0.1513,-0.1539,-0.1602,-0.1702,-0.1763,-0.1929,-0.1962,-0.1991,-0.1945,-0.1866,-0.1792,-0.1668,-0.1655,-0.1628,-0.1701,-0.1494,-0.1577,-0.1551,-0.1567,-0.1623,-0.1606,-0.1403,-0.1397,-0.1392,-0.1388,0,-0.1326,-0.1335,-0.1375,-0.1407,-0.1459,-0.1531,-0.1615,-0.1616,-0.1761,-0.1732,-0.1644,-0.158,-0.1417,-0.1305,-0.1247,-0.1249,-0.1463,-0.1384,-0.1415,-0.1351,-0.1354,-0.1297,-0.1512,-0.1343,-0.1348,-0.1351,-0.1353,-0.1355,-0.1255,-0.1235,-0.1256,-0.129,-0.1333,-0.1364,-0.1379,-0.1426,-0.1423,-0.1372,-0.1352,-0.1209,-0.1109,-0.0995,-0.0979,-0.0918,-0.104,-0.096,-0.1026,-0.1088,-0.1048,-0.1126,-0.0867,-0.0868,-0.087,-0.0871,-0.0872,0,-0.1185,-0.1156,-0.1159,-0.1187,-0.1186,-0.1254,-0.1286,-0.1258,-0.1187,-0.1112,-0.1019,-0.0872,-0.0738,-0.0711,-0.0643,-0.0622,-0.0675,-0.0651,-0.0757,-0.0764,-0.086,-0.0844,-0.0497,-0.0497,-0.0498,-0.0498,-0.0498,-0.0498,-0.1145,-0.1095,-0.1084,-0.105,-0.1064,-0.1042,-0.1037,-0.096,-0.0899,-0.0725,-0.0622,-0.0554,-0.0537,-0.0589,-0.0546,-0.0522,-0.0593,-0.0523,-0.0616,-0.0748,-0.0786,-0.0822,-0.0818,-0.0471,-0.0471,-0.0477,-0.0477,-0.0477]},{"header":{"parameterUnit":"m.s-1","parameterCategory":2,"la1":30.2991,"la2":30.254,"lo1":-89.0895,"lo2":-89.0444,"dy":0.0017,"dx":0.0017,"nx":28,"ny":28,"refTime":"2025-09-11T09:00:00:Z","depth":"0","parameterNumber":3,"parameterNumberName":"V-component_of_CURRENTS"},"data":[0,0,0,0,0,0,0,0,0,0,0,0,0,0,0,0,0,0,0,0,0,0,0,0,0,0,0,0,0,0,0,0,0,0,0,0,0,0,0,0,0,0,0,0,0,0,0,0,0,0,0,0,0,0,0,0,0,0,-0.0384,-0.0382,0,-0.0227,-0.0225,-0.0224,-0.0145,-0.0144,-0.0144,-0.0144,-0.0086,-0.0085,-0.0083,0,0,0,0,0,0,0,0,0,0,0,0,0,-0.0506,-0.0505,-0.0385,-0.0382,-0.038,-0.0227,-0.0225,-0.0223,-0.0145,-0.0144,-0.0144,-0.0143,-0.0086,-0.0085,-0.0083,0,0,0,0,0,0,0,0,0,0,0,0,0,-0.0416,-0.0505,-0.0385,-0.0319,-0.0312,-0.0227,-0.0225,-0.0223,-0.0145,-0.0144,-0.0144,-0.0143,-0.0086,-0.0085,-0.0083,-0.0084,0,0,-0.0078,-0.0077,0,0,0,0,0,0,0,0,-0.0421,-0.0412,-0.0331,-0.0324,-0.0315,-0.0201,-0.0246,-0.018,-0.0145,-0.0213,-0.0144,-0.0143,-0.0131,-0.0126,-0.0102,-0.0082,-0.0079,-0.0078,-0.0076,-0.0076,-0.0075,0,0,0,0,0,0,0,-0.0428,-0.0417,-0.0326,-0.0329,-0.0319,-0.0259,-0.0247,-0.0233,-0.0183,-0.0207,-0.02,-0.0176,-0.0128,-0.0104,-0.01,-0.0078,-0.0078,-0.0076,-0.0075,-0.0074,-0.0005,-0.0004,0,0,0,0,0,0,-0.0445,-0.0424,-0.0331,-0.0321,-0.0363,-0.0257,-0.0244,-0.0242,-0.018,-0.0168,-0.0176,-0.0172,-0.0107,-0.0102,-0.0098,-0.0075,-0.0076,-0.0074,-0.0073,-0.0006,-0.0005,-0.0004,0,0,0,0,0,0,-0.0449,-0.0439,-0.0337,-0.0364,-0.0346,-0.0256,-0.0254,-0.0239,-0.0212,-0.0155,-0.0146,-0.0164,-0.0106,-0.0101,-0.0072,-0.0074,-0.0073,-0.0072,-0.0007,-0.0006,-0.0004,-0.0044,0,0,0,0,0,0,-0.0454,-0.0442,-0.0453,-0.0366,-0.0345,-0.0298,-0.0253,-0.0236,-0.0196,-0.0189,-0.0142,-0.0135,-0.0105,-0.0075,-0.007,-0.0071,-0.007,-0.0008,-0.0006,-0.0005,-0.0044,-0.0044,-0.0045,0,0,0,0,0,-0.0459,-0.048,-0.0455,-0.0443,-0.0362,-0.0298,-0.0283,-0.0218,-0.0196,-0.0191,-0.0145,-0.0137,-0.0062,-0.0073,-0.0068,-0.0068,-0.0008,-0.0007,-0.0005,-0.0043,-0.0044,-0.0045,0,0,0,0,0,0,-0.0531,-0.047,-0.0442,-0.0442,-0.0377,-0.0283,-0.0271,-0.0225,-0.0183,-0.0182,-0.0131,-0.0121,-0.0095,-0.0075,-0.0088,-0.004,-0.0033,-0.003,-0.0064,-0.0064,-0.0065,-0.0092,-0.0069,0,0,0,0,0,-0.0553,-0.056,-0.0475,-0.0474,-0.0447,-0.0361,-0.0328,-0.0284,-0.0227,-0.0207,-0.0166,-0.0123,-0.0083,-0.0069,-0.0037,-0.0021,-0.0002,-0.0014,-0.0014,-0.0015,-0.0032,0.0012,0.0013,0.0002,0.0002,0.0002,0,0,-0.0575,-0.0545,-0.0545,-0.049,-0.0437,-0.0412,-0.0342,-0.03,-0.0278,-0.0212,-0.0184,-0.013,-0.0078,-0.0047,-0.0034,-0.0032,-0.0001,-0.0013,-0.0014,-0.0031,0.0014,0.0015,0.0016,0.0003,0.0003,0.0003,0,0,-0.0625,-0.06,-0.0619,-0.0576,-0.0507,-0.0455,-0.0447,-0.0359,-0.0321,-0.028,-0.0217,-0.016,-0.0116,-0.0061,-0.0032,-0.0019,-0.0005,-0.0012,-0.0042,0.0002,0.0002,0.0003,0.0024,0.0027,-0.0013,-0.0013,-0.0013,0,-0.0651,-0.0665,-0.0609,-0.0608,-0.0581,-0.0483,-0.0482,-0.0428,-0.034,-0.0308,-0.0284,-0.0167,-0.012,-0.0061,-0.0046,-0.0023,-0.0008,-0.0046,-0.0002,-0.0,0.0001,0.0023,0.0026,-0.0015,-0.0015,-0.0015,-0.0014,0,-0.0705,-0.0711,-0.0715,-0.0691,-0.0658,-0.064,-0.0555,-0.0518,-0.046,-0.0391,-0.0317,-0.0228,-0.0158,-0.0123,-0.0082,-0.0039,-0.0035,-0.0008,-0.0007,-0.0001,0.0022,0.0027,-0.0017,-0.0017,-0.0016,-0.0016,0,0,-0.0762,-0.0759,-0.0757,-0.0766,-0.0702,-0.068,-0.0647,-0.0578,-0.0548,-0.0454,-0.0406,-0.03,-0.0232,-0.0194,-0.0119,-0.0072,-0.0035,-0.0045,-0.0042,-0.0039,0.0037,0.0091,0.0102,-0.0005,-0.0005,-0.0004,0.0047,0,-0.0812,-0.0855,-0.083,-0.0852,-0.0858,-0.0779,-0.0754,-0.068,-0.0599,-0.0529,-0.0407,-0.0339,-0.0264,-0.0225,-0.0162,-0.0059,-0.0025,-0.0053,0.0042,0.0045,0.0081,0.0109,0.014,0.0193,0.0052,0.0052,0.0053,0,-0.0861,-0.0885,-0.0933,-0.0935,-0.0929,-0.093,-0.0871,-0.0834,-0.0707,-0.064,-0.0537,-0.0437,-0.0328,-0.0276,-0.012,-0.0145,-0.0071,0.0002,0.0007,0.0069,0.0108,0.0167,0.0207,0.0306,0.006,0.006,0.0059,0,-0.0922,-0.0951,-0.1003,-0.1001,-0.0985,-0.0992,-0.0971,-0.0869,-0.0826,-0.0709,-0.0654,-0.0515,-0.0419,-0.0318,-0.0135,-0.0142,0.0028,0.0039,0.0149,0.0153,0.0205,0.0213,0.034,0.0115,0.0115,0.0115,0.0115,0,-0.0977,-0.1011,-0.1044,-0.1067,-0.1113,-0.1071,-0.1075,-0.102,-0.0926,-0.0853,-0.0719,-0.0615,-0.0424,-0.028,-0.0165,0.0025,0.0007,0.0142,0.0177,0.0194,0.02,0.0309,0.0334,0.0117,0.0116,0.0116,0.0116,0,-0.1019,-0.1044,-0.1103,-0.1131,-0.1146,-0.1173,-0.1156,-0.1136,-0.1042,-0.0944,-0.091,-0.0684,-0.0481,-0.0299,-0.0094,0.0013,0.0228,0.0221,0.0223,0.0258,0.0437,0.0458,0.0583,0.065,0.0327,0.0329,0.0331,0,-0.1043,-0.1082,-0.1158,-0.1201,-0.1223,-0.1255,-0.1262,-0.1201,-0.1165,-0.0958,-0.0911,-0.0683,-0.0477,-0.0163,0.0053,0.0246,0.0319,0.0373,0.0374,0.0457,0.0505,0.0506,0.0553,0.0421,0.0423,0.0424,0.0426,0,-0.1075,-0.1108,-0.1156,-0.1258,-0.1307,-0.1343,-0.1351,-0.1345,-0.1223,-0.1103,-0.0889,-0.0709,-0.0353,-0.0056,0.0208,0.0322,0.0444,0.0414,0.051,0.0597,0.0596,0.0674,0.0358,0.0441,0.044,0.0438,0.0438,0.0437,-0.1087,-0.1134,-0.1213,-0.1305,-0.1364,-0.1412,-0.1434,-0.1394,-0.1312,-0.1112,-0.0907,-0.0598,-0.0164,0.0242,0.0363,0.0634,0.0589,0.0704,0.0721,0.0713,0.0789,0.0498,0.0621,0.062,0.062,0.0619,0.0619,0,-0.1094,-0.1159,-0.1252,-0.1357,-0.1425,-0.1446,-0.147,-0.1454,-0.1354,-0.1101,-0.0869,-0.0299,0.0064,0.0411,0.0806,0.0931,0.0943,0.0991,0.0998,0.1032,0.0793,0.081,0.0968,0.0968,0.0968,0.0968,0.0968,0.0968,-0.11,-0.1187,-0.125,-0.1384,-0.1451,-0.1517,-0.153,-0.1475,-0.1331,-0.0931,-0.0554,-0.0228,0.0373,0.0843,0.1163,0.1188,0.1289,0.127,0.133,0.116,0.1134,0.1109,0.1134,0.1358,0.1358,0.1568,0.157,0.1572]}],[{"header":{"parameterUnit":"m.s-1","parameterCategory":2,"la1":30.2991,"la2":30.254,"lo1":-89.0895,"lo2":-89.0444,"dy":0.0017,"dx":0.0017,"nx":28,"ny":28,"refTime":"2025-09-11T09:00:00:Z","depth":"2","parameterNumber":2,"parameterNumberName":"U-component_of_CURRENTS"},"data":[0,0,0,0,0,0,0,0,0,0,0,0,0,0,0,0,0,0,0,0,0,0,0,0,0,0,0,0,0,0,0,0,0,0,0,0,0,0,0,0,0,0,0,0,0,0,0,0,0,0,0,0,0,0,0,0,0,0,-0.2183,-0.2183,0,-0.2193,-0.2193,-0.2193,-0.2138,-0.2136,-0.2135,-0.2134,-0.2036,-0.2035,-0.2034,0,0,0,0,0,0,0,0,0,0,0,0,0,-0.2157,-0.2157,-0.2183,-0.2183,-0.2184,-0.2193,-0.2193,-0.2193,-0.2138,-0.2136,-0.2135,-0.2133,-0.2037,-0.2035,-0.2033,0,0,0,0,0,0,0,0,0,0,0,0,0,-0.2165,-0.2157,-0.2183,-0.2159,-0.2157,-0.2193,-0.2193,-0.2193,-0.2138,-0.2136,-0.2134,-0.2132,-0.2037,-0.2035,-0.2033,-0.2063,0,0,-0.2027,-0.2026,0,0,0,0,0,0,0,0,-0.2165,-0.2166,-0.2162,-0.2161,-0.2159,-0.2164,-0.2149,-0.2145,-0.2139,-0.2143,-0.2134,-0.2131,-0.2072,-0.2067,-0.2072,-0.2058,-0.2054,-0.2027,-0.2026,-0.2025,-0.2024,0,0,0,0,0,0,0,-0.2164,-0.2165,-0.2185,-0.2163,-0.2161,-0.2162,-0.216,-0.2148,-0.2115,-0.2142,-0.2139,-0.2145,-0.207,-0.2074,-0.2069,-0.2052,-0.2027,-0.2025,-0.2024,-0.2023,-0.2065,-0.2067,0,0,0,0,0,0,-0.2168,-0.2165,-0.2184,-0.2185,-0.2159,-0.2164,-0.2162,-0.2163,-0.2117,-0.211,-0.2146,-0.2142,-0.2078,-0.2071,-0.2065,-0.2094,-0.2025,-0.2023,-0.2022,-0.2063,-0.2065,-0.2068,0,0,0,0,0,0,-0.2167,-0.217,-0.2184,-0.2177,-0.2179,-0.2167,-0.2168,-0.2164,-0.2162,-0.2122,-0.2112,-0.2148,-0.2076,-0.2068,-0.2068,-0.2089,-0.2022,-0.2021,-0.206,-0.2063,-0.2067,-0.2153,0,0,0,0,0,0,-0.2166,-0.2169,-0.2169,-0.2178,-0.218,-0.2225,-0.217,-0.2166,-0.2171,-0.2165,-0.2121,-0.211,-0.2074,-0.2072,-0.2066,-0.2085,-0.2019,-0.2057,-0.2061,-0.2066,-0.2147,-0.2159,-0.2169,0,0,0,0,0,-0.2165,-0.2176,-0.2168,-0.2171,-0.218,-0.2227,-0.223,-0.2211,-0.2173,-0.2196,-0.2161,-0.2111,-0.2094,-0.2072,-0.2065,-0.2084,-0.2055,-0.206,-0.2065,-0.2143,-0.2157,-0.2169,0,0,0,0,0,0,-0.216,-0.2172,-0.2163,-0.2175,-0.2208,-0.2219,-0.2227,-0.2219,-0.2212,-0.2191,-0.214,-0.213,-0.2145,-0.211,-0.2087,-0.2113,-0.2067,-0.2071,-0.2128,-0.2141,-0.2152,-0.2084,-0.2017,0,0,0,0,0,-0.2163,-0.2167,-0.2197,-0.2205,-0.2221,-0.2225,-0.2236,-0.2236,-0.2233,-0.2226,-0.2202,-0.2173,-0.2166,-0.2147,-0.2146,-0.2152,-0.2091,-0.2162,-0.2173,-0.2182,-0.2126,-0.2123,-0.2128,-0.2085,-0.2085,-0.2085,0,0,-0.2158,-0.2167,-0.2167,-0.2204,-0.2214,-0.224,-0.2226,-0.2255,-0.2259,-0.2217,-0.2212,-0.2219,-0.2183,-0.22,-0.2201,-0.2165,-0.2163,-0.2189,-0.2197,-0.2133,-0.2129,-0.2132,-0.2136,-0.2088,-0.2088,-0.2087,0,0,-0.2175,-0.2167,-0.2191,-0.2218,-0.2254,-0.2256,-0.2268,-0.2299,-0.2295,-0.2332,-0.2287,-0.2295,-0.2306,-0.2264,-0.2246,-0.2312,-0.2237,-0.2333,-0.2309,-0.231,-0.2312,-0.2313,-0.2232,-0.2225,-0.232,-0.232,-0.2321,0,-0.2169,-0.22,-0.221,-0.2245,-0.2246,-0.226,-0.2283,-0.2295,-0.2322,-0.2303,-0.2345,-0.2331,-0.2326,-0.2274,-0.2309,-0.2329,-0.2294,-0.2262,-0.2321,-0.232,-0.232,-0.2236,-0.2227,-0.2325,-0.2325,-0.2324,-0.2324,0,-0.2206,-0.2235,-0.2252,-0.2277,-0.2283,-0.2316,-0.2324,-0.234,-0.2353,-0.2351,-0.2358,-0.2379,-0.2348,-0.2382,-0.2367,-0.2348,-0.2312,-0.2352,-0.2279,-0.2329,-0.2238,-0.2227,-0.2332,-0.233,-0.2329,-0.2328,0,0,-0.2163,-0.2263,-0.226,-0.2275,-0.23,-0.23,-0.2306,-0.2302,-0.2263,-0.2339,-0.2306,-0.2343,-0.2341,-0.2318,-0.2314,-0.2314,-0.2311,-0.233,-0.2328,-0.2228,-0.2254,-0.2163,-0.2141,-0.2381,-0.238,-0.2379,-0.2188,0,-0.2186,-0.2263,-0.2284,-0.2302,-0.2329,-0.232,-0.2299,-0.228,-0.229,-0.2274,-0.2288,-0.2278,-0.2316,-0.2319,-0.2328,-0.232,-0.2288,-0.2353,-0.2233,-0.2226,-0.2126,-0.2128,-0.2002,-0.1816,-0.2176,-0.2174,-0.2173,0,-0.2187,-0.2242,-0.2299,-0.2299,-0.2297,-0.2301,-0.2223,-0.2222,-0.2187,-0.2189,-0.2181,-0.2191,-0.2166,-0.2245,-0.2195,-0.2243,-0.2232,-0.2234,-0.2228,-0.2087,-0.2115,-0.1829,-0.1781,-0.2153,-0.2155,-0.2156,-0.2158,0,-0.2127,-0.221,-0.225,-0.2262,-0.2287,-0.2278,-0.2261,-0.2204,-0.2142,-0.2138,-0.2109,-0.2091,-0.2092,-0.2102,-0.2109,-0.2161,-0.206,-0.2136,-0.2009,-0.2,-0.1828,-0.1806,-0.2082,-0.2082,-0.2083,-0.2083,-0.2084,0,-0.2116,-0.2124,-0.2244,-0.2266,-0.2226,-0.2253,-0.2188,-0.2154,-0.2098,-0.2002,-0.2065,-0.1998,-0.2074,-0.2035,-0.2054,-0.1964,-0.2008,-0.1952,-0.1945,-0.1856,-0.1839,-0.2089,-0.2093,-0.2076,-0.2077,-0.2079,-0.208,0,-0.2028,-0.2126,-0.216,-0.2227,-0.2216,-0.2187,-0.212,-0.2056,-0.204,-0.1934,-0.1927,-0.1902,-0.1861,-0.1875,-0.1864,-0.186,-0.1814,-0.177,-0.1614,-0.1593,-0.1754,-0.1765,-0.1588,-0.1584,-0.158,-0.1576,-0.1573,0,-0.1994,-0.2031,-0.2103,-0.2098,-0.2137,-0.2113,-0.2051,-0.2009,-0.1925,-0.1854,-0.177,-0.1734,-0.1658,-0.1576,-0.1562,-0.1495,-0.1637,-0.1361,-0.1447,-0.1692,-0.1704,-0.1721,-0.1737,-0.1241,-0.1235,-0.1231,-0.1227,0,-0.1912,-0.1958,-0.1999,-0.2012,-0.1987,-0.1915,-0.1854,-0.1753,-0.1699,-0.1633,-0.1526,-0.1486,-0.1402,-0.1287,-0.1223,-0.12,-0.1373,-0.1268,-0.1555,-0.1407,-0.1355,-0.1371,-0.1399,-0.1188,-0.1192,-0.1195,-0.1197,-0.1199,-0.182,-0.1828,-0.1908,-0.1885,-0.1848,-0.1725,-0.1603,-0.1552,-0.1409,-0.1278,-0.1299,-0.1211,-0.1195,-0.1018,-0.0955,-0.0932,-0.1049,-0.1059,-0.1076,-0.1097,-0.1112,-0.106,-0.0833,-0.0835,-0.0837,-0.0838,-0.0839,0,-0.1701,-0.1736,-0.1748,-0.1714,-0.1617,-0.1634,-0.1445,-0.1319,-0.1156,-0.1107,-0.1036,-0.0896,-0.078,-0.0777,-0.0656,-0.0642,-0.0685,-0.0646,-0.0713,-0.0749,-0.0782,-0.0788,-0.0419,-0.0418,-0.0418,-0.0417,0,0,-0.1649,-0.1632,-0.1661,-0.1508,-0.1459,-0.1249,-0.1115,-0.0975,-0.0877,-0.0777,-0.0727,-0.0748,-0.0733,-0.0576,-0.0539,-0.0455,-0.0608,-0.0433,-0.0765,-0.0878,-0.0911,-0.1005,-0.1051,0,0,0,0,0]},{"header":{"parameterUnit":"m.s-1","parameterCategory":2,"la1":30.2991,"la2":30.254,"lo1":-89.0895,"lo2":-89.0444,"dy":0.0017,"dx":0.0017,"nx":28,"ny":28,"refTime":"2025-09-11T09:00:00:Z","depth":"2","parameterNumber":3,"parameterNumberName":"V-component_of_CURRENTS"},"data":[0,0,0,0,0,0,0,0,0,0,0,0,0,0,0,0,0,0,0,0,0,0,0,0,0,0,0,0,0,0,0,0,0,0,0,0,0,0,0,0,0,0,0,0,0,0,0,0,0,0,0,0,0,0,0,0,0,0,0.0107,0.0107,0,0.0183,0.0184,0.0185,0.0211,0.0211,0.021,0.021,0.025,0.0252,0.0253,0,0,0,0,0,0,0,0,0,0,0,0,0,0.0044,0.0045,0.0107,0.0107,0.0108,0.0183,0.0184,0.0185,0.0211,0.0211,0.021,0.021,0.025,0.0251,0.0253,0,0,0,0,0,0,0,0,0,0,0,0,0,0.0092,0.0045,0.0106,0.0129,0.0132,0.0183,0.0184,0.0186,0.0211,0.0211,0.021,0.0209,0.0249,0.0251,0.0253,0.0279,0,0,0.026,0.0261,0,0,0,0,0,0,0,0,0.0089,0.0094,0.0125,0.0128,0.0131,0.0186,0.0177,0.0215,0.0211,0.0182,0.021,0.0209,0.0225,0.0229,0.0247,0.0281,0.0283,0.026,0.0262,0.0263,0.0263,0,0,0,0,0,0,0,0.0085,0.0091,0.0138,0.0126,0.013,0.0157,0.0162,0.0185,0.0206,0.0185,0.0187,0.0193,0.0226,0.0245,0.0248,0.0284,0.026,0.0262,0.0263,0.0264,0.0358,0.0359,0,0,0,0,0,0,0.0071,0.0088,0.0136,0.014,0.0107,0.0158,0.0164,0.017,0.0207,0.0212,0.0194,0.0194,0.0242,0.0245,0.0249,0.0272,0.0262,0.0265,0.0266,0.0357,0.0358,0.0359,0,0,0,0,0,0,0.007,0.0075,0.0133,0.0115,0.0124,0.0159,0.0165,0.0172,0.0181,0.0214,0.0219,0.0195,0.0241,0.0246,0.0276,0.0273,0.0266,0.0268,0.0355,0.0357,0.0359,0.0322,0,0,0,0,0,0,0.0068,0.0074,0.0067,0.0114,0.0124,0.0155,0.0166,0.0174,0.0186,0.0187,0.0217,0.0221,0.0241,0.0273,0.0278,0.0276,0.0269,0.0354,0.0356,0.0358,0.0322,0.0323,0.0323,0,0,0,0,0,0.0065,0.0055,0.0066,0.0071,0.0116,0.0155,0.0163,0.0187,0.0186,0.0192,0.0221,0.0219,0.029,0.0276,0.0282,0.028,0.0353,0.0355,0.0358,0.0322,0.0322,0.0323,0,0,0,0,0,0,0.0025,0.0058,0.0071,0.0071,0.0108,0.0158,0.0157,0.0181,0.0209,0.0202,0.0234,0.0241,0.0272,0.0286,0.0269,0.0318,0.0321,0.0325,0.0292,0.0293,0.0293,0.0245,0.0271,0,0,0,0,0,0.0013,0.0011,0.0058,0.0058,0.0069,0.0113,0.0128,0.0149,0.0183,0.0194,0.0222,0.0253,0.0291,0.0297,0.0335,0.0352,0.0359,0.0358,0.0359,0.0359,0.0327,0.0377,0.0378,0.0368,0.0368,0.0368,0,0,-0.0001,0.0014,0.0015,0.0049,0.0072,0.0078,0.012,0.0137,0.0142,0.0193,0.0203,0.0258,0.0302,0.0333,0.0345,0.0337,0.0364,0.0362,0.0361,0.0329,0.0379,0.038,0.038,0.037,0.0369,0.0369,0,0,-0.0038,-0.002,-0.0036,-0.0015,0.0015,0.0047,0.0048,0.0099,0.0118,0.0155,0.0195,0.0244,0.0295,0.0326,0.0348,0.0372,0.0376,0.039,0.0335,0.0385,0.0385,0.0385,0.038,0.038,0.0376,0.0376,0.0376,0,-0.006,-0.0076,-0.0032,-0.0044,-0.004,0.0025,0.001,0.0045,0.0102,0.0117,0.0149,0.0248,0.0289,0.032,0.0333,0.0368,0.038,0.0326,0.0382,0.0383,0.0384,0.0378,0.0379,0.0375,0.0375,0.0375,0.0375,0,-0.0105,-0.0123,-0.0132,-0.013,-0.0111,-0.0112,-0.006,-0.0031,0.001,0.005,0.0109,0.0192,0.0242,0.0279,0.031,0.0338,0.0339,0.0387,0.037,0.0382,0.0376,0.0377,0.0373,0.0373,0.0374,0.0374,0,0,-0.0139,-0.0164,-0.0168,-0.0192,-0.0161,-0.015,-0.0136,-0.0101,-0.0093,-0.0013,0.0004,0.01,0.0152,0.018,0.0243,0.0282,0.0309,0.0323,0.0327,0.0296,0.0376,0.0411,0.0416,0.0373,0.0374,0.0374,0.0363,0,-0.0192,-0.0255,-0.0238,-0.0283,-0.0309,-0.0251,-0.0238,-0.0194,-0.0137,-0.0097,-0.0006,0.0043,0.011,0.0148,0.0198,0.0294,0.0312,0.0304,0.0386,0.0387,0.0402,0.042,0.041,0.0403,0.0364,0.0364,0.0364,0,-0.0238,-0.028,-0.0349,-0.0371,-0.0373,-0.0384,-0.0352,-0.0328,-0.0254,-0.0201,-0.0137,-0.0061,0.0004,0.0077,0.0196,0.0189,0.0259,0.0329,0.0332,0.037,0.0425,0.0392,0.0407,0.0366,0.0366,0.0366,0.0366,0,-0.0296,-0.035,-0.0416,-0.0426,-0.0434,-0.0448,-0.0437,-0.0374,-0.0342,-0.0279,-0.0248,-0.0151,-0.0092,0.0016,0.0171,0.0179,0.0306,0.0342,0.0421,0.0423,0.0429,0.0432,0.0403,0.0403,0.0403,0.0403,0.0403,0,-0.0357,-0.0405,-0.0459,-0.0498,-0.0547,-0.0524,-0.054,-0.0499,-0.0437,-0.041,-0.0321,-0.0266,-0.0096,0.001,0.0132,0.0282,0.0276,0.0394,0.0431,0.0417,0.0419,0.0405,0.0405,0.0403,0.0403,0.0403,0.0403,0,-0.0402,-0.044,-0.0518,-0.057,-0.0583,-0.0618,-0.0608,-0.0594,-0.0545,-0.0508,-0.0492,-0.0353,-0.0212,-0.005,0.0137,0.0234,0.0376,0.0426,0.0374,0.0405,0.0449,0.0448,0.0477,0.0478,0.0479,0.048,0.0481,0,-0.0424,-0.0481,-0.0578,-0.062,-0.0654,-0.0694,-0.0695,-0.0647,-0.0618,-0.0548,-0.0522,-0.04,-0.0271,-0.0007,0.0196,0.0384,0.0405,0.0462,0.0487,0.0427,0.046,0.0457,0.0455,0.0465,0.0465,0.0466,0.0466,0,-0.047,-0.0518,-0.059,-0.0684,-0.0728,-0.0743,-0.0753,-0.0743,-0.0674,-0.0645,-0.0557,-0.0463,-0.0215,0.003,0.0277,0.0387,0.0434,0.0478,0.0451,0.0461,0.042,0.0451,0.0448,0.047,0.047,0.047,0.0469,0.0469,-0.0491,-0.0561,-0.0662,-0.0742,-0.0778,-0.0779,-0.0773,-0.076,-0.0718,-0.0631,-0.0558,-0.0372,-0.0184,0.0218,0.0348,0.0479,0.0489,0.0528,0.0524,0.0521,0.0536,0.0501,0.0564,0.0564,0.0565,0.0565,0.0565,0,-0.051,-0.0604,-0.0697,-0.0772,-0.0786,-0.0802,-0.0781,-0.0748,-0.0705,-0.0585,-0.048,-0.0241,0.0025,0.0229,0.0446,0.0545,0.0522,0.0549,0.0506,0.0503,0.0499,0.0511,0.0534,0.0534,0.0534,0.0534,0,0,-0.0524,-0.0632,-0.07,-0.0754,-0.0784,-0.0755,-0.0736,-0.0705,-0.0603,-0.05,-0.0328,-0.0115,0.0119,0.0254,0.0363,0.0468,0.0451,0.0465,0.0485,0.0418,0.0413,0.0491,0.0507,0,0,0,0,0]}],[{"header":{"parameterUnit":"m.s-1","parameterCategory":2,"la1":30.2991,"la2":30.254,"lo1":-89.0895,"lo2":-89.0444,"dy":0.0017,"dx":0.0017,"nx":28,"ny":28,"refTime":"2025-09-11T09:00:00:Z","depth":"4","parameterNumber":2,"parameterNumberName":"U-component_of_CURRENTS"},"data":[0,0,0,0,0,0,0,0,0,0,0,0,0,0,0,0,0,0,0,0,0,0,0,0,0,0,0,0,0,0,0,0,0,0,0,0,0,0,0,0,0,0,0,0,0,0,0,0,0,0,0,0,0,0,0,0,0,0,-0.0809,-0.0809,0,-0.0848,-0.0849,-0.085,-0.088,-0.088,-0.0879,-0.0879,-0.0937,-0.0939,-0.0941,0,0,0,0,0,0,0,0,0,0,0,0,0,-0.0786,-0.0787,-0.0809,-0.0809,-0.0809,-0.0848,-0.0849,-0.085,-0.088,-0.088,-0.0879,-0.0879,-0.0937,-0.0939,-0.0941,0,0,0,0,0,0,0,0,0,0,0,0,0,-0.0813,-0.0787,-0.0809,-0.0824,-0.0826,-0.0848,-0.0849,-0.0851,-0.088,-0.088,-0.0879,-0.0879,-0.0936,-0.0939,-0.0941,-0.0966,0,0,-0.095,-0.0951,0,0,0,0,0,0,0,0,-0.0812,-0.0815,-0.0822,-0.0823,-0.0825,-0.0854,-0.0862,-0.0888,-0.088,-0.0866,-0.0879,-0.0879,-0.0907,-0.0912,-0.0929,-0.0969,-0.0972,-0.095,-0.0951,-0.0953,-0.0953,0,0,0,0,0,0,0,-0.081,-0.0814,-0.0831,-0.0822,-0.0823,-0.0837,-0.0841,-0.0868,-0.0894,-0.0867,-0.0868,-0.0863,-0.0909,-0.0926,-0.0931,-0.0972,-0.095,-0.0952,-0.0954,-0.0955,-0.1065,-0.1066,0,0,0,0,0,0,-0.0792,-0.0812,-0.083,-0.0832,-0.081,-0.0837,-0.0842,-0.085,-0.0893,-0.0897,-0.0863,-0.0864,-0.0922,-0.0927,-0.0933,-0.1003,-0.0953,-0.0955,-0.0957,-0.1064,-0.1066,-0.1067,0,0,0,0,0,0,-0.0792,-0.0794,-0.0828,-0.0817,-0.0821,-0.0837,-0.0846,-0.085,-0.0873,-0.0888,-0.0894,-0.088,-0.0922,-0.0929,-0.0971,-0.1004,-0.0956,-0.0959,-0.1062,-0.1064,-0.1066,-0.1119,0,0,0,0,0,0,-0.0791,-0.0794,-0.0805,-0.0816,-0.0821,-0.0839,-0.0846,-0.0851,-0.0867,-0.0869,-0.0905,-0.091,-0.0922,-0.0967,-0.0974,-0.1007,-0.0961,-0.1061,-0.1063,-0.1066,-0.1115,-0.1122,-0.1128,0,0,0,0,0,-0.0791,-0.0795,-0.0805,-0.0807,-0.0832,-0.0838,-0.0844,-0.0857,-0.0868,-0.0878,-0.0913,-0.0909,-0.0987,-0.0971,-0.0978,-0.1012,-0.106,-0.1063,-0.1065,-0.1113,-0.1121,-0.1128,0,0,0,0,0,0,-0.079,-0.0798,-0.081,-0.0818,-0.0828,-0.0841,-0.0848,-0.0863,-0.09,-0.0909,-0.093,-0.0938,-0.0988,-0.0991,-0.0972,-0.105,-0.1022,-0.1026,-0.1055,-0.1063,-0.1069,-0.1071,-0.0963,0,0,0,0,0,-0.0794,-0.0801,-0.0811,-0.0818,-0.0822,-0.0842,-0.085,-0.0862,-0.0887,-0.0903,-0.0932,-0.0966,-0.1007,-0.1025,-0.1055,-0.1098,-0.1087,-0.1123,-0.1129,-0.1135,-0.1141,-0.1142,-0.1149,-0.1077,-0.1077,-0.1077,0,0,-0.0795,-0.0799,-0.0805,-0.0818,-0.083,-0.0858,-0.0848,-0.086,-0.09,-0.0904,-0.0971,-0.0992,-0.1023,-0.1077,-0.1099,-0.1082,-0.1152,-0.1138,-0.1143,-0.1147,-0.1146,-0.1153,-0.1159,-0.1079,-0.1078,-0.1078,0,0,-0.0794,-0.0806,-0.0814,-0.0831,-0.0844,-0.0864,-0.0869,-0.0896,-0.0922,-0.0985,-0.0999,-0.1034,-0.1102,-0.1123,-0.1145,-0.1202,-0.1187,-0.1214,-0.125,-0.1251,-0.1257,-0.1262,-0.1263,-0.1268,-0.1216,-0.1216,-0.1216,0,-0.0798,-0.0815,-0.0816,-0.0837,-0.0846,-0.0872,-0.089,-0.0936,-0.098,-0.1004,-0.1013,-0.1111,-0.1127,-0.1189,-0.1213,-0.1217,-0.1215,-0.122,-0.1259,-0.1263,-0.1267,-0.1268,-0.1272,-0.1219,-0.1218,-0.1218,-0.1218,0,-0.0806,-0.0835,-0.0838,-0.0882,-0.0892,-0.0911,-0.0955,-0.1003,-0.1044,-0.1081,-0.115,-0.1181,-0.123,-0.1246,-0.1257,-0.1299,-0.1288,-0.1267,-0.1237,-0.1278,-0.1276,-0.1279,-0.1223,-0.1222,-0.1221,-0.122,0,0,-0.0779,-0.0834,-0.084,-0.0872,-0.0914,-0.0928,-0.0999,-0.1055,-0.1113,-0.1174,-0.1234,-0.1302,-0.1306,-0.1329,-0.1335,-0.1344,-0.1372,-0.1325,-0.1323,-0.1323,-0.138,-0.1261,-0.1253,-0.1358,-0.1359,-0.136,-0.1369,0,-0.0788,-0.0828,-0.0849,-0.0911,-0.0936,-0.0984,-0.1047,-0.1107,-0.1166,-0.1243,-0.1284,-0.1346,-0.1343,-0.1365,-0.1378,-0.1379,-0.1383,-0.1372,-0.1344,-0.1343,-0.1228,-0.1253,-0.1362,-0.1371,-0.1372,-0.1373,-0.1373,0,-0.0783,-0.0815,-0.0849,-0.0931,-0.0943,-0.0996,-0.1078,-0.1136,-0.1243,-0.1288,-0.135,-0.1386,-0.1436,-0.1415,-0.1438,-0.1434,-0.1412,-0.1405,-0.1404,-0.1275,-0.1229,-0.1321,-0.1379,-0.1378,-0.1378,-0.1378,-0.1377,0,-0.0734,-0.0818,-0.0839,-0.0865,-0.096,-0.1,-0.1059,-0.1148,-0.1194,-0.1309,-0.1361,-0.1422,-0.1463,-0.1458,-0.1448,-0.1449,-0.1455,-0.1445,-0.1318,-0.131,-0.1392,-0.1386,-0.1442,-0.1442,-0.1442,-0.1442,-0.1442,0,-0.0715,-0.075,-0.0838,-0.0857,-0.0918,-0.098,-0.1046,-0.1128,-0.1222,-0.1277,-0.1372,-0.1419,-0.1476,-0.149,-0.1465,-0.1397,-0.1461,-0.1327,-0.1301,-0.1415,-0.1412,-0.1394,-0.1389,-0.1442,-0.1442,-0.1442,-0.1442,0,-0.065,-0.0702,-0.0754,-0.0858,-0.0891,-0.0933,-0.1032,-0.108,-0.119,-0.1267,-0.1303,-0.1426,-0.1439,-0.1461,-0.1455,-0.1404,-0.1354,-0.1305,-0.1432,-0.1413,-0.1212,-0.121,-0.1183,-0.1179,-0.1175,-0.1172,-0.117,0,-0.0622,-0.0631,-0.0727,-0.0758,-0.081,-0.0882,-0.092,-0.104,-0.1087,-0.1249,-0.1277,-0.1353,-0.1407,-0.1321,-0.1342,-0.128,-0.125,-0.1235,-0.1224,-0.1206,-0.1185,-0.1188,-0.119,-0.1164,-0.1163,-0.1162,-0.1162,0,-0.0559,-0.0584,-0.0617,-0.0677,-0.073,-0.078,-0.0861,-0.0897,-0.1031,-0.1144,-0.1214,-0.1237,-0.1252,-0.1245,-0.12,-0.1155,-0.1258,-0.1197,-0.1205,-0.1195,-0.1183,-0.1166,-0.1172,-0.1149,-0.1151,-0.1152,-0.1153,0,-0.0514,-0.0508,-0.0537,-0.0588,-0.0637,-0.0669,-0.0737,-0.0805,-0.0867,-0.1066,-0.1073,-0.1157,-0.124,-0.1177,-0.1133,-0.108,-0.1062,-0.1034,-0.105,-0.1064,-0.1015,-0.0982,-0.0864,0,0,0,0,0,-0.0478,-0.0436,-0.0452,-0.0498,-0.0539,-0.0573,-0.068,-0.0756,-0.0903,-0.0912,-0.0997,-0.1002,-0.0993,-0.1031,-0.0944,-0.1048,-0.1045,-0.0943,-0.1017,-0.1081,-0.1095,-0.1045,0,0,0,0,0,0,-0.0444,-0.0432,-0.0406,-0.0386,-0.0408,-0.0449,-0.0517,-0.0633,-0.0657,-0.0815,-0.0805,-0.0914,-0.0899,-0.0999,-0.091,-0.0914,-0.0935,-0.0983,-0.098,-0.1073,-0.1085,-0.1097,-0.105,0,0,0,0,0]},{"header":{"parameterUnit":"m.s-1","parameterCategory":2,"la1":30.2991,"la2":30.254,"lo1":-89.0895,"lo2":-89.0444,"dy":0.0017,"dx":0.0017,"nx":28,"ny":28,"refTime":"2025-09-11T09:00:00:Z","depth":"4","parameterNumber":3,"parameterNumberName":"V-component_of_CURRENTS"},"data":[0,0,0,0,0,0,0,0,0,0,0,0,0,0,0,0,0,0,0,0,0,0,0,0,0,0,0,0,0,0,0,0,0,0,0,0,0,0,0,0,0,0,0,0,0,0,0,0,0,0,0,0,0,0,0,0,0,0,-0.0062,-0.0062,0,-0.0066,-0.0066,-0.0066,-0.0047,-0.0047,-0.0046,-0.0046,-0.0003,-0.0003,-0.0002,0,0,0,0,0,0,0,0,0,0,0,0,0,-0.0044,-0.0044,-0.0062,-0.0062,-0.0062,-0.0066,-0.0066,-0.0066,-0.0047,-0.0047,-0.0046,-0.0045,-0.0004,-0.0003,-0.0002,0,0,0,0,0,0,0,0,0,0,0,0,0,-0.0049,-0.0044,-0.0062,-0.0054,-0.0053,-0.0066,-0.0066,-0.0066,-0.0047,-0.0047,-0.0046,-0.0045,-0.0004,-0.0003,-0.0002,-0.0009,0,0,0.0001,0.0002,0,0,0,0,0,0,0,0,-0.0049,-0.005,-0.0055,-0.0054,-0.0054,-0.0056,-0.0045,-0.0045,-0.0047,-0.0048,-0.0046,-0.0045,-0.0018,-0.0016,-0.0017,-0.0007,-0.0005,0.0002,0.0002,0.0003,0.0003,0,0,0,0,0,0,0,-0.0049,-0.005,-0.0062,-0.0055,-0.0054,-0.0053,-0.0053,-0.0045,-0.0035,-0.0048,-0.0047,-0.005,-0.0017,-0.0018,-0.0016,-0.0005,0.0001,0.0002,0.0003,0.0003,0.0005,0.0004,0,0,0,0,0,0,-0.0051,-0.0049,-0.0062,-0.0063,-0.0051,-0.0054,-0.0054,-0.0055,-0.0036,-0.0033,-0.005,-0.0049,-0.002,-0.0017,-0.0014,-0.0013,0.0003,0.0004,0.0004,0.0005,0.0005,0.0004,0,0,0,0,0,0,-0.0051,-0.0052,-0.0062,-0.0057,-0.0058,-0.0055,-0.0057,-0.0056,-0.0054,-0.0039,-0.0034,-0.005,-0.002,-0.0016,-0.0008,-0.0011,0.0004,0.0005,0.0006,0.0005,0.0004,-0.0015,0,0,0,0,0,0,-0.005,-0.0052,-0.0053,-0.0057,-0.0059,-0.008,-0.0058,-0.0056,-0.0058,-0.0056,-0.0037,-0.0033,-0.0019,-0.001,-0.0007,-0.0009,0.0006,0.0007,0.0006,0.0005,-0.0014,-0.0016,-0.0019,0,0,0,0,0,-0.0049,-0.0059,-0.0053,-0.0055,-0.0061,-0.0081,-0.0082,-0.0076,-0.0058,-0.0069,-0.0049,-0.0033,-0.0015,-0.001,-0.0006,-0.0008,0.0007,0.0006,0.0005,-0.0012,-0.0016,-0.0019,0,0,0,0,0,0,-0.0052,-0.0058,-0.0052,-0.0062,-0.0074,-0.0078,-0.0086,-0.0078,-0.0071,-0.0063,-0.0039,-0.0034,-0.003,-0.002,-0.0014,-0.0013,-0.0002,-0.0003,-0.0016,-0.0019,-0.0022,-0.0022,0.0007,0,0,0,0,0,-0.0054,-0.0061,-0.007,-0.0078,-0.0085,-0.0084,-0.0089,-0.0087,-0.0082,-0.0078,-0.0064,-0.0048,-0.0035,-0.0027,-0.0021,-0.0018,0.0016,-0.0019,-0.0021,-0.0023,-0.0022,0.003,0.0033,-0.0,-0.0,-0.0,0,0,-0.0056,-0.0061,-0.0064,-0.0079,-0.0084,-0.0103,-0.0085,-0.0099,-0.0105,-0.0074,-0.0075,-0.0058,-0.0038,-0.0035,-0.0032,-0.0025,0.0003,-0.0025,-0.0027,-0.0024,0.0029,0.0033,0.0036,-0.0001,-0.0001,-0.0001,0,0,-0.0074,-0.0071,-0.0088,-0.0101,-0.0116,-0.0118,-0.0123,-0.013,-0.0124,-0.0128,-0.01,-0.0084,-0.0077,-0.0056,-0.0044,-0.0058,-0.0015,-0.0059,-0.0067,-0.0016,-0.0013,-0.0009,0.004,0.0048,-0.0057,-0.0057,-0.0057,0,-0.0076,-0.0099,-0.0097,-0.0122,-0.0136,-0.0126,-0.0152,-0.0147,-0.0148,-0.0138,-0.0134,-0.0097,-0.0085,-0.0055,-0.0066,-0.0062,-0.0025,-0.0054,-0.0017,-0.0013,-0.0009,0.004,0.0049,-0.0058,-0.0058,-0.0058,-0.0058,0,-0.0109,-0.013,-0.0144,-0.0167,-0.0182,-0.0205,-0.0204,-0.0205,-0.0193,-0.0179,-0.0155,-0.0129,-0.0104,-0.0099,-0.0089,-0.0054,-0.0034,-0.0027,-0.0005,-0.0006,0.0045,0.0055,-0.006,-0.0059,-0.0059,-0.0059,0,0,-0.0107,-0.0158,-0.0163,-0.0189,-0.021,-0.0229,-0.0233,-0.0235,-0.0225,-0.0208,-0.0185,-0.0162,-0.0132,-0.0117,-0.0088,-0.0048,0.0006,-0.0029,-0.0026,0.0027,0.0125,0.0098,0.0107,0.0028,0.0029,0.003,0.015,0,-0.0135,-0.0193,-0.0207,-0.0259,-0.0291,-0.0287,-0.0291,-0.0284,-0.0264,-0.0239,-0.0185,-0.0158,-0.014,-0.0123,-0.0078,-0.0012,0.0031,-0.0027,0.0111,0.0115,0.0098,0.0117,0.0035,0.0157,0.016,0.0162,0.0163,0,-0.0161,-0.02,-0.0261,-0.0309,-0.0321,-0.0345,-0.0348,-0.035,-0.03,-0.0279,-0.0227,-0.0181,-0.0111,-0.0104,0.0028,-0.0006,0.005,0.0102,0.0108,0.0097,0.0107,0.0158,0.0182,0.018,0.0179,0.0178,0.0176,0,-0.0166,-0.0235,-0.0287,-0.0306,-0.0354,-0.0373,-0.0386,-0.036,-0.0354,-0.0296,-0.0277,-0.0178,-0.0135,-0.0033,0.0065,0.0055,0.021,0.0211,0.0245,0.0245,0.0243,0.0238,0.0296,0.0296,0.0295,0.0295,0.0295,0,-0.019,-0.0229,-0.0299,-0.033,-0.0382,-0.0398,-0.0422,-0.0414,-0.0382,-0.0369,-0.0296,-0.0255,-0.0118,-0.0017,0.0078,0.0198,0.0227,0.0251,0.0275,0.0231,0.0223,0.0251,0.0244,0.0299,0.0298,0.0298,0.0297,0,-0.0185,-0.0231,-0.0298,-0.0367,-0.0393,-0.0426,-0.0466,-0.0464,-0.0438,-0.0417,-0.0398,-0.0297,-0.0164,-0.0024,0.0143,0.02,0.0325,0.0353,0.0301,0.0319,0.0326,0.0317,0.0418,0.0418,0.0418,0.0418,0.0418,0,-0.0187,-0.0224,-0.0326,-0.0372,-0.0411,-0.0463,-0.0486,-0.0489,-0.0483,-0.0441,-0.0422,-0.0307,-0.0227,0.001,0.0142,0.0342,0.0346,0.0405,0.0357,0.0326,0.034,0.0331,0.0321,0.0418,0.0418,0.0418,0.0418,0,-0.019,-0.0228,-0.0286,-0.038,-0.0438,-0.0489,-0.0525,-0.0531,-0.0519,-0.0505,-0.0427,-0.0316,-0.0174,0.0005,0.0152,0.0287,0.0371,0.0406,0.0406,0.0362,0.0328,0.034,0.033,0.0418,0.0418,0.0418,0.0418,0,-0.0186,-0.0224,-0.0301,-0.0379,-0.0449,-0.049,-0.0521,-0.0518,-0.0513,-0.0475,-0.045,-0.0303,-0.0217,-0.0024,0.0119,0.0248,0.0266,0.0285,0.0292,0.0293,0.0207,0.0143,0.0205,0,0,0,0,0,-0.0176,-0.0213,-0.0291,-0.0378,-0.0441,-0.0475,-0.0527,-0.0544,-0.055,-0.0498,-0.0475,-0.0342,-0.0145,-0.005,0.0078,0.0115,0.0287,0.0263,0.0311,0.042,0.0419,0.0335,0,0,0,0,0,0,-0.0175,-0.0233,-0.0278,-0.0347,-0.0394,-0.0452,-0.0485,-0.05,-0.0469,-0.0464,-0.0345,-0.0317,-0.0104,-0.0195,0.0089,0.0124,0.0164,0.0357,0.0358,0.042,0.042,0.0419,0.0333,0,0,0,0,0]}]]